Weather History for Hereford, TX

Change the Weather History Date:

Sunday, December 29, 2013

  Actual Average (KAMA) Record (KAMA)
Temperature  
Mean Temperature 25 °F 36 °F  
Max Temperature 34 °F 49 °F 74 °F (1965)
Min Temperature 15 °F 23 °F -5 °F (1983)
Degree Days  
Heating Degree Days 40 29  
Month to date heating degree days 815  
Since 1 July heating degree days 1659  
Cooling Degree Days 0 0  
Month to date cooling degree days 0  
Year to date cooling degree days 1399  
Moisture  
Dew Point 15 °F    
Average Humidity 66    
Maximum Humidity 82    
Minimum Humidity 50    
Precipitation  
Precipitation 0.00 in 0.02 in 0.95 in (2006)
Month to date precipitation 0.67  
Year to date precipitation 20.32  
Snow  
Snow 0.00 in 0.10 in 2.50 in (1958)
Month to date snowfall 3.5  
Since 1 July snowfall 6.2  
Snow Depth -    
Sea Level Pressure  
Sea Level Pressure 30.15 in    
Wind  
Wind Speed 21 mph (North)    
Max Wind Speed 40 mph    
Max Gust Speed 51 mph    
Visibility 10 miles    
Events      
T = Trace of Precipitation, MM = Missing Value Source: NWS Daily Summary

Daily Weather History Graph

Daily Weather History Graph

Search for Another Location

Airport:

Trip Planner

Search our weather history database for the weather conditions in past years. The results will help you decide how hot, cold, wet, or windy it might be!

Date:

Astronomy

Dec. 29, 2013 Rise Set
Actual Time 7:56 AM CST 5:46 PM CST
Civil Twilight 7:28 AM CST 6:14 PM CST
Nautical Twilight 6:56 AM CST 6:46 PM CST
Astronomical Twilight 6:25 AM CST 7:17 PM CST
Moon 4:45 AM CST (12/29) 3:24 PM CST (12/29)
Length of Visible Light 10h 46m
Length of Day
9h 50m
Waning Crescent, 11% of the Moon is Illuminated
Dec 29
Waning Crescent
Jan 1
New
Jan 7
First Quarter
Jan 15
Full
Jan 23
Last Quarter

Hourly Weather History & Observations

Time (CST) Temp. Windchill Dew Point Humidity Pressure Visibility Wind Dir Wind Speed Gust Speed Precip Events Conditions
12:15 AM 24.8 °F 19.1 °F 18.3 °F 76% 29.86 in 10.0 mi NNW 4.6 mph - N/A   Clear
12:35 AM 25.5 °F 15.5 °F 19.8 °F 79% 29.87 in 10.0 mi NNW 10.4 mph - N/A   Clear
12:55 AM 30.6 °F 17.9 °F 24.1 °F 77% 29.87 in 10.0 mi North 20.7 mph 24.2 mph N/A   Clear
1:15 AM 34.9 °F 21.5 °F 27.5 °F 74% 29.87 in 10.0 mi North 29.9 mph 39.1 mph N/A   Clear
1:35 AM 34.7 °F 21.1 °F 26.6 °F 72% 29.90 in 10.0 mi North 31.1 mph 42.6 mph N/A   Clear
1:55 AM 34.2 °F 19.5 °F 26.6 °F 74% 29.91 in 10.0 mi North 35.7 mph 46.0 mph N/A   Clear
2:15 AM 33.3 °F 18.3 °F 26.6 °F 77% 29.94 in 10.0 mi North 35.7 mph 46.0 mph N/A   Clear
2:35 AM 32.7 °F 17.7 °F 25.9 °F 76% 29.95 in 10.0 mi North 34.5 mph 47.2 mph N/A   Scattered Clouds
2:55 AM 32.2 °F 16.4 °F 23.7 °F 71% 29.97 in 10.0 mi North 38.0 mph 50.6 mph N/A   Mostly Cloudy
3:15 AM 31.8 °F 15.5 °F 22.5 °F 68% 29.99 in 10.0 mi North 40.3 mph 47.2 mph N/A   Overcast
3:35 AM 31.3 °F 16.0 °F 22.6 °F 70% 30.01 in 10.0 mi North 33.4 mph 42.6 mph N/A   Overcast
3:55 AM 30.2 °F 15.7 °F 22.1 °F 72% 30.02 in 10.0 mi North 27.6 mph 41.4 mph N/A   Overcast
4:15 AM 29.3 °F 12.6 °F 20.8 °F 71% 30.03 in 10.0 mi North 36.8 mph 43.7 mph N/A   Overcast
4:35 AM 28.6 °F 14.1 °F 20.3 °F 71% 30.05 in 10.0 mi North 25.3 mph 39.1 mph N/A   Overcast
4:55 AM 28.4 °F 13.3 °F 20.3 °F 72% 30.06 in 10.0 mi North 27.6 mph 38.0 mph N/A   Overcast
5:15 AM 27.3 °F 11.0 °F 18.1 °F 68% 30.06 in 10.0 mi North 31.1 mph 40.3 mph N/A   Overcast
5:35 AM 26.4 °F 10.3 °F 16.0 °F 65% 30.07 in 10.0 mi North 28.8 mph 38.0 mph N/A   Overcast
5:55 AM 25.7 °F 8.1 °F 15.4 °F 65% 30.09 in 10.0 mi North 34.5 mph 42.6 mph N/A   Overcast
6:15 AM 25.2 °F 8.6 °F 14.9 °F 65% 30.09 in 10.0 mi North 28.8 mph 41.4 mph N/A   Overcast
6:35 AM 23.9 °F 6.6 °F 14.0 °F 66% 30.11 in 10.0 mi North 29.9 mph 43.7 mph N/A   Mostly Cloudy
6:55 AM 23.0 °F 8.0 °F 14.0 °F 68% 30.13 in 10.0 mi North 20.7 mph 35.7 mph N/A   Scattered Clouds
7:15 AM 22.8 °F 6.0 °F 13.8 °F 68% 30.14 in 10.0 mi NNE 26.5 mph 41.4 mph N/A   Clear
7:35 AM 22.5 °F 4.4 °F 14.0 °F 70% 30.15 in 10.0 mi North 31.1 mph 35.7 mph N/A   Clear
7:55 AM 21.9 °F 5.1 °F 13.1 °F 69% 30.17 in 10.0 mi North 25.3 mph 31.1 mph N/A   Scattered Clouds
8:15 AM 21.2 °F 3.0 °F 11.3 °F 66% 30.17 in 10.0 mi North 29.9 mph 36.8 mph N/A   Scattered Clouds
8:35 AM 21.2 °F 4.5 °F 11.3 °F 66% 30.19 in 10.0 mi North 24.2 mph 34.5 mph N/A   Clear
8:55 AM 21.6 °F 4.0 °F 10.9 °F 64% 30.20 in 10.0 mi North 27.6 mph 36.8 mph N/A   Clear
9:15 AM 22.1 °F 5.1 °F 10.9 °F 62% 30.22 in 10.0 mi North 26.5 mph 36.8 mph N/A   Clear
9:35 AM 22.5 °F 5.9 °F 11.1 °F 62% 30.23 in 10.0 mi North 25.3 mph 35.7 mph N/A   Clear
9:55 AM 22.8 °F 6.0 °F 10.9 °F 60% 30.23 in 10.0 mi North 26.5 mph 31.1 mph N/A   Clear
10:15 AM 24.3 °F 8.0 °F 11.5 °F 58% 30.24 in 10.0 mi North 26.5 mph 33.4 mph N/A   Clear
10:35 AM 24.6 °F 9.4 °F 11.5 °F 57% 30.24 in 10.0 mi North 23.0 mph 29.9 mph N/A   Clear
10:55 AM 25.0 °F 8.9 °F 11.8 °F 57% 30.25 in 10.0 mi North 26.5 mph 31.1 mph N/A   Clear
11:15 AM 25.3 °F 9.1 °F 12.0 °F 57% 30.25 in 10.0 mi North 27.6 mph 33.4 mph N/A   Clear
11:35 AM 26.4 °F 12.1 °F 12.7 °F 56% 30.25 in 10.0 mi North 21.9 mph 32.2 mph N/A   Clear
11:55 AM 27.3 °F 13.0 °F 13.5 °F 56% 30.24 in 10.0 mi North 23.0 mph 29.9 mph N/A   Scattered Clouds
12:15 PM 27.0 °F 12.5 °F 12.6 °F 55% 30.24 in 10.0 mi North 23.0 mph 29.9 mph N/A   Overcast
12:35 PM 27.0 °F 12.8 °F 13.1 °F 56% 30.24 in 10.0 mi North 21.9 mph 28.8 mph N/A   Overcast
12:55 PM 26.6 °F 12.7 °F 13.3 °F 57% 30.23 in 10.0 mi NNE 20.7 mph 29.9 mph N/A   Overcast
1:15 PM 28.0 °F 14.9 °F 13.5 °F 54% 30.22 in 10.0 mi North 19.6 mph 28.8 mph N/A   Mostly Cloudy
1:35 PM 28.2 °F 15.2 °F 13.6 °F 54% 30.22 in 10.0 mi North 19.6 mph 27.6 mph N/A   Clear
1:55 PM 29.5 °F 16.5 °F 14.0 °F 53% 30.22 in 10.0 mi North 20.7 mph 24.2 mph N/A   Clear
2:15 PM 29.7 °F 17.1 °F 14.0 °F 52% 30.22 in 10.0 mi North 19.6 mph 24.2 mph N/A   Clear
2:35 PM 30.4 °F 17.7 °F 13.8 °F 50% 30.21 in 10.0 mi North 20.7 mph 26.5 mph N/A   Clear
2:55 PM 30.7 °F 19.2 °F 13.8 °F 50% 30.21 in 10.0 mi North 17.3 mph 23.0 mph N/A   Clear
3:15 PM 30.0 °F 18.3 °F 14.2 °F 52% 30.21 in 10.0 mi North 17.3 mph 23.0 mph N/A   Clear
3:35 PM 30.7 °F 19.2 °F 14.0 °F 50% 30.21 in 10.0 mi North 17.3 mph 20.7 mph N/A   Clear
3:55 PM 30.6 °F 19.8 °F 14.5 °F 51% 30.21 in 10.0 mi North 15.0 mph 21.9 mph N/A   Clear
4:15 PM 30.7 °F 20.4 °F 14.5 °F 51% 30.21 in 10.0 mi North 13.8 mph - N/A   Clear
4:35 PM 30.6 °F 19.4 °F 14.5 °F 51% 30.20 in 10.0 mi NNE 16.1 mph - N/A   Clear
4:55 PM 30.2 °F 20.8 °F 14.5 °F 52% 30.21 in 10.0 mi North 11.5 mph - N/A   Clear
5:15 PM 29.3 °F 20.2 °F 14.4 °F 54% 30.21 in 10.0 mi North 10.4 mph - N/A   Clear
5:35 PM 27.9 °F 18.4 °F 14.0 °F 56% 30.21 in 10.0 mi North 10.4 mph - N/A   Clear
5:55 PM 26.6 °F 18.2 °F 13.5 °F 58% 30.21 in 10.0 mi North 8.1 mph - N/A   Clear
6:15 PM 24.8 °F 16.9 °F 13.1 °F 61% 30.22 in 10.0 mi North 6.9 mph - N/A   Clear
6:35 PM 23.4 °F 16.2 °F 12.6 °F 63% 30.22 in 10.0 mi North 5.8 mph - N/A   Clear
6:55 PM 21.0 °F 12.4 °F 11.7 °F 67% 30.23 in 10.0 mi NNW 6.9 mph - N/A   Clear
7:15 PM 20.7 °F 13.0 °F 11.3 °F 67% 30.23 in 10.0 mi NNW 5.8 mph - N/A   Clear
7:35 PM 19.9 °F 12.1 °F 11.1 °F 69% 30.24 in 10.0 mi NNW 5.8 mph - N/A   Mostly Cloudy
7:55 PM 21.2 °F 14.9 °F 12.6 °F 69% 30.24 in 10.0 mi NW 4.6 mph - N/A   Mostly Cloudy
8:15 PM 20.1 °F 13.6 °F 11.8 °F 70% 30.24 in 10.0 mi NW 4.6 mph - N/A   Scattered Clouds
8:35 PM 19.0 °F 13.9 °F 11.1 °F 71% 30.24 in 10.0 mi WNW 3.5 mph - N/A   Clear
8:55 PM 18.5 °F 13.3 °F 11.5 °F 74% 30.24 in 10.0 mi WNW 3.5 mph - N/A   Clear
9:15 PM 16.7 °F 8.3 °F 11.1 °F 79% 30.24 in 10.0 mi WNW 5.8 mph - N/A   Clear
9:35 PM 16.5 °F 9.4 °F 11.3 °F 80% 30.23 in 10.0 mi West 4.6 mph - N/A   Clear
9:55 PM 16.2 °F 7.6 °F 11.3 °F 81% 30.22 in 10.0 mi West 5.8 mph - N/A   Clear
10:15 PM 16.7 °F 8.3 °F 12.0 °F 82% 30.22 in 10.0 mi WSW 5.8 mph - N/A   Clear
10:35 PM 17.2 °F 8.9 °F 12.2 °F 81% 30.22 in 10.0 mi West 5.8 mph - N/A   Clear
10:55 PM 17.2 °F 11.9 °F 12.4 °F 81% 30.21 in 10.0 mi SW 3.5 mph - N/A   Clear
11:15 PM 18.0 °F 12.7 °F 12.7 °F 80% 30.21 in 10.0 mi SSW 3.5 mph - N/A   Clear
11:35 PM 16.7 °F 11.2 °F 12.0 °F 82% 30.21 in 10.0 mi SW 3.5 mph - N/A   Clear
11:55 PM 15.4 °F 6.8 °F 10.9 °F 82% 30.19 in 10.0 mi WSW 5.8 mph - N/A   Clear